Wetbulb
47.28 50.73 50.95 49.29 51.01 52.29 49.24 47.61 43.79 46.18 49.16 51.46 53.83 55.11 58.69 58.16 58.97 60.35 59.99 64.82 62.63 63.30 63.95 63.81 63.83 64.36 64.73 64.91 64.77 64.25 63.75 64.82 64.78 65.24 65.64 65.61 65.68 66.23 66.58 66.32 66.33 65.95 65.31 65.17
46.31 51.43 51.12 49.58 51.70 51.85 53.05 50.52 50.80 50.79 50.75 54.10 55.26 57.51 58.17 59.81 59.82 59.26 62.76 63.68 63.78 63.63 63.29 62.50 62.80 63.30 63.82 63.25 62.89 63.07 62.78 63.81 64.06 64.03 64.58 64.66 65.01 64.75 64.43 64.20 64.85 65.36 65.40 65.40
42.27 50.40 49.47 45.57 48.99 51.20 51.87 51.49 51.94 49.59 52.97 54.96 55.16 57.87 58.99 59.56 60.42 63.57 64.12 64.47 64.05 64.11 63.76 62.97 63.09 62.56 61.18 62.59 62.33 62.14 62.64 62.90 63.35 64.26 63.97 63.99 64.52 64.33 64.38 64.47 64.16 63.69 63.89 64.11
43.23 45.04 41.22 48.90 52.99 54.81 52.11 54.47 55.89 56.04 55.44 56.57 56.80 59.80 59.33 58.35 59.27 62.80 62.86 64.20 64.75 63.73 63.88 62.71 62.42 61.70 62.36 62.03 61.47 61.43 61.67 62.36 63.00 63.26 63.33 63.57 63.59 63.19 62.59 62.89 62.68 62.29 62.14 62.64
43.01 41.37 44.07 47.65 51.24 52.17 49.89 49.22 57.08 59.23 59.69 59.77 59.44 61.34 60.31 58.88 59.75 62.49 62.32 62.82 63.65 61.33 60.75 60.85 60.98 61.29 61.02 60.37 60.37 60.62 60.44 60.55 60.92 61.50 61.42 61.66 61.38 61.16 61.57 61.56 61.11 60.90 61.39 61.27
40.08 38.37 36.86 46.06 54.24 53.87 52.98 45.76 55.94 60.71 59.82 60.22 60.69 53.98 55.56 62.51 63.13 63.49 62.76 60.11 59.56 59.10 58.03 57.68 58.65 59.61 57.79 57.44 56.94 56.71 58.28 59.73 60.50 60.54 60.27 60.34 60.39 59.95 60.28 60.00 60.45 61.24 61.27 61.92
42.53 41.08 45.16 52.92 56.26 55.03 44.62 46.39 56.69 58.74 58.70 56.90 54.30 55.22 55.99 58.23 57.73 58.73 59.27 59.39 58.42 56.65 55.73 55.41 56.15 57.02 55.78 54.38 53.81 55.15 56.15 57.48 58.62 58.96 58.84 59.14 58.44 58.12 57.86 57.98 58.76 58.84 59.50 60.09
42.13 40.63 41.09 55.84 55.05 50.57 52.20 54.06 57.18 56.76 56.84 55.45 55.38 55.83 56.30 57.14 56.85 56.66 55.71 56.51 57.00 54.68 53.97 54.38 55.15 54.32 52.28 52.18 53.66 53.96 54.45 54.75 54.34 55.29 56.70 57.21 55.82 55.60 55.82 55.52 55.72 56.52 57.23 58.48
46.26 47.25 53.37 53.54 55.09 56.18 56.95 55.05 54.60 55.39 55.72 55.86 55.13 54.80 55.26 54.26 53.87 53.72 53.90 53.62 53.83 52.25 51.21 51.47 51.65 51.48 49.81 50.67 51.81 51.30 50.51 50.36 50.88 51.55 52.26 53.52 53.13 52.06 51.69 52.33 52.93 53.91 55.31 56.62
49.12 51.18 52.41 55.85 55.51 56.37 56.95 55.89 56.11 56.31 55.94 55.77 53.60 53.35 52.34 52.47 51.38 51.54 51.96 51.69 51.66 50.56 49.53 48.73 49.73 50.77 50.25 50.92 50.63 49.67 48.62 48.85 49.43 49.23 49.49 49.98 50.54 51.04 51.08 51.22 51.01 51.74 52.38 53.49
49.07 51.63 54.39 54.86 56.07 56.40 56.50 56.96 56.34 56.20 55.45 53.59 52.53 51.37 51.04 49.80 49.71 50.23 50.27 50.07 49.69 48.71 48.10 48.06 48.95 48.82 49.93 51.73 50.23 48.54 48.32 48.10 47.30 47.55 47.22 47.74 48.67 49.86 50.08 50.94 50.76 50.38 50.32 51.31
47.24 52.44 51.95 53.02 55.70 57.30 56.34 55.81 55.11 53.74 52.53 52.71 52.46 50.58 50.04 49.12 49.24 48.77 48.37 48.55 48.15 47.88 47.73 47.88 48.18 48.59 50.87 49.72 48.67 46.79 45.88 46.22 47.05 47.45 47.62 47.50 47.55 48.18 49.00 48.33 47.93 46.64 46.08 47.54
54.48 55.84 55.88 56.22 57.11 56.86 55.82 55.78 54.86 53.06 52.36 50.72 50.43 50.52 49.98 49.00 48.62 50.24 48.07 48.13 47.64 47.06 47.32 47.69 47.58 47.93 48.36 48.25 47.70 46.42 44.91 45.84 47.05 47.14 46.72 46.75 47.33 46.87 46.06 48.52 47.57 46.09 44.90 44.85
57.41 57.85 54.87 56.45 54.30 55.40 55.92 55.30 54.60 53.04 51.87 51.72 51.13 50.94 50.58 49.17 48.59 48.12 47.64 47.73 47.83 47.41 47.32 47.29 47.70 48.06 49.07 48.30 46.85 46.24 45.75 48.25 45.94 46.07 46.16 46.18 45.72 45.99 46.23 46.73 46.24 46.39 47.75 46.87
55.89 57.16 55.94 54.97 54.64 54.14 55.11 53.82 51.75 50.31 51.12 50.52 51.07 50.59 50.17 48.38 47.49 47.47 48.29 48.43 47.95 46.87 46.97 47.48 47.63 48.22 48.78 48.81 47.42 46.65 45.87 45.00 45.32 45.31 44.99 45.41 44.46 44.73 44.22 43.54 43.87 44.97 44.50 45.16
56.27 56.07 55.37 54.25 53.49 53.44 53.80 51.84 49.70 49.11 50.60 50.34 49.92 50.03 49.77 49.25 48.20 47.71 47.41 47.76 45.58 44.97 45.94 46.83 47.42 48.64 49.42 47.81 45.94 44.68 44.09 47.33 46.62 44.05 42.94 43.03 43.29 42.95 42.51 41.97 42.05 42.70 42.61 44.05
54.14 52.33 53.51 52.61 52.34 51.75 50.78 50.04 49.72 49.76 50.81 49.98 49.52 49.76 49.34 48.37 47.34 46.68 46.54 46.98 47.01 46.62 46.47 47.24 48.11 49.06 48.19 46.24 44.47 44.25 43.43 42.38 46.45 43.54 44.05 43.66 43.17 42.24 41.88 40.95 39.63 39.88 40.12 42.52
57.72 56.70 56.00 54.31 51.74 50.12 49.44 50.35 50.68 51.12 50.55 50.88 50.34 49.51 48.46 47.65 46.33 45.71 46.30 47.54 46.75 47.46 48.57 48.64 48.50 46.39 46.70 45.80 45.13 43.90 41.96 41.78 43.08 43.25 43.89 43.86 43.38 43.36 42.07 40.45 39.12 38.56 39.19 40.85
57.80 56.09 55.02 53.56 51.75 49.91 49.27 49.83 49.78 50.94 51.30 50.87 49.34 48.10 48.09 47.56 46.25 46.58 46.49 46.33 46.08 45.21 45.33 46.61 50.60 50.27 45.84 46.55 48.80 43.27 41.84 41.87 42.28 43.26 44.37 44.76 43.77 43.12 41.94 40.41 39.14 38.51 38.63 39.16
53.86 53.74 53.11 51.85 51.31 50.41 49.03 49.91 50.77 50.02 50.30 49.57 48.28 47.11 46.86 46.93 46.58 46.74 45.97 45.21 46.59 46.47 46.03 46.52 46.27 46.13 45.37 46.41 50.75 42.54 41.65 41.58 41.53 42.69 44.12 44.41 43.83 43.11 42.37 40.64 39.58 38.92 38.64 39.36
52.18 52.29 51.39 50.44 49.82 49.96 49.50 49.67 48.72 47.97 48.31 48.10 47.26 46.53 46.12 45.96 46.37 46.02 45.86 45.17 46.29 48.60 47.45 49.71 46.32 45.63 45.82 47.25 46.83 42.54 41.17 41.16 41.42 43.54 44.14 44.15 43.71 43.02 42.34 41.27 40.23 39.55 38.71 38.87
51.64 50.90 50.16 49.85 48.97 48.06 48.80 48.18 48.15 48.05 47.64 47.47 47.71 46.74 45.54 45.19 45.19 45.82 46.48 46.82 46.26 50.04 47.04 44.39 44.60 49.18 47.48 51.71 44.54 42.66 41.63 41.59 41.66 43.71 44.34 44.20 43.36 42.59 41.89 41.22 40.27 40.02 39.48 39.03
51.18 50.25 49.33 48.73 48.66 48.66 49.34 48.92 48.42 48.23 47.02 46.62 46.25 45.99 45.70 45.56 45.47 44.39 44.89 46.23 47.13 48.07 46.73 44.90 48.70 52.03 52.60 46.72 43.92 43.30 42.61 42.13 41.58 44.05 44.49 44.26 43.57 43.02 41.99 41.06 40.25 39.89 39.60 39.37
50.93 49.83 48.58 49.27 49.08 48.36 47.56 49.09 49.51 48.46 47.56 47.18 46.82 46.82 46.13 45.62 45.69 46.49 47.13 48.20 49.33 48.45 46.13 46.65 47.73 50.74 51.65 44.25 44.14 43.50 42.86 42.35 42.76 45.13 44.55 43.35 43.71 43.04 42.01 40.89 39.76 39.76 39.42 38.96
51.23 49.53 49.33 49.85 49.17 48.38 48.46 49.41 49.32 48.71 48.17 47.36 47.46 47.35 47.88 47.52 46.78 48.99 47.85 48.23 50.13 48.33 46.77 49.22 50.85 50.54 44.93 43.10 42.41 42.43 43.02 42.71 44.76 44.55 44.20 43.56 42.88 41.81 40.91 39.96 39.43 39.06 39.09 39.22
50.88 50.24 48.82 49.87 49.23 48.86 49.49 50.32 51.67 52.30 49.93 49.44 49.88 49.63 49.25 48.53 48.47 48.43 49.82 48.44 48.36 48.07 46.18 45.80 45.09 44.25 42.87 42.54 42.55 43.02 42.73 42.54 44.11 44.18 43.38 43.02 42.01 40.73 39.61 39.02 38.91 38.89 39.07 39.14
50.11 49.00 49.17 48.91 49.93 50.45 50.91 50.58 51.47 49.74 48.66 46.80 45.63 47.55 48.72 49.21 49.43 48.41 48.41 48.25 47.38 46.75 46.04 45.58 44.52 44.64 42.76 42.89 42.55 42.46 42.08 41.74 42.42 43.30 43.38 42.37 41.25 40.07 39.33 39.32 39.50 39.83 39.86 39.70
MSLP
1005.94 1005.73 1005.45 1005.51 1005.41 1005.34 1005.37 1006.40 1007.36 1007.27 1008.48 1008.92 1009.12 1010.33 1011.09 1010.78 1010.35 1010.21 1011.07 1012.53 1013.51 1013.88 1013.14 1011.95 1011.38 1010.40 1009.94 1010.90 1010.72 1010.34 1011.14 1012.17 1012.99 1013.22 1013.13 1013.27 1013.43 1013.39 1013.51 1013.77 1013.91 1013.94 1013.94 1013.74
1006.13 1005.53 1005.24 1004.86 1004.56 1004.71 1005.14 1006.15 1006.51 1006.95 1007.67 1007.78 1009.28 1010.18 1010.88 1011.17 1010.85 1011.14 1012.22 1012.31 1013.57 1013.23 1011.06 1010.01 1009.81 1010.02 1010.01 1010.20 1010.80 1011.49 1012.33 1012.87 1012.86 1012.92 1012.89 1012.82 1012.95 1013.06 1013.33 1013.68 1013.83 1013.79 1013.78 1013.74
1007.22 1006.23 1005.42 1005.07 1004.24 1004.14 1004.36 1004.71 1005.76 1006.76 1007.00 1007.68 1009.07 1010.09 1010.84 1011.44 1011.32 1010.73 1010.77 1011.48 1011.50 1010.86 1010.64 1010.09 1010.13 1010.17 1010.38 1011.03 1011.76 1012.21 1012.38 1012.55 1012.91 1012.81 1012.70 1012.57 1012.60 1012.81 1013.11 1013.35 1013.51 1013.59 1013.54 1013.44
1007.89 1007.20 1006.67 1005.10 1003.61 1003.70 1004.40 1004.52 1005.13 1006.11 1006.74 1007.37 1008.60 1009.81 1010.90 1011.53 1011.61 1011.51 1010.83 1010.33 1010.73 1010.88 1010.90 1010.87 1010.80 1011.05 1011.50 1012.11 1012.51 1012.93 1012.95 1013.74 1013.57 1013.10 1012.89 1012.83 1012.96 1013.06 1013.14 1013.16 1013.26 1013.27 1013.17 1013.00
1008.04 1007.89 1006.86 1005.31 1004.17 1003.76 1004.41 1005.91 1006.15 1006.34 1007.03 1007.94 1009.21 1010.11 1011.21 1011.38 1011.34 1011.60 1011.86 1012.06 1012.21 1012.12 1012.32 1012.68 1012.90 1013.09 1013.32 1013.79 1014.19 1014.50 1014.77 1014.50 1013.76 1013.61 1013.36 1013.47 1013.45 1013.45 1013.35 1013.35 1013.34 1013.14 1012.85 1012.62
1008.10 1008.06 1007.10 1005.92 1004.80 1003.86 1004.38 1006.70 1007.10 1006.61 1007.60 1008.15 1009.24 1010.84 1011.65 1011.38 1011.75 1012.21 1012.65 1013.26 1013.65 1013.71 1013.92 1014.19 1014.76 1014.88 1015.02 1015.37 1015.77 1016.01 1015.56 1014.83 1014.32 1013.94 1014.00 1013.95 1013.86 1013.77 1013.56 1013.46 1013.28 1012.92 1012.54 1012.17
1007.66 1007.69 1006.95 1005.76 1005.07 1004.64 1005.89 1007.94 1007.60 1007.63 1008.21 1008.90 1009.95 1010.79 1011.61 1012.07 1012.73 1013.28 1013.81 1014.10 1014.34 1014.79 1015.33 1015.68 1015.72 1015.69 1015.94 1016.36 1016.52 1015.89 1015.32 1014.75 1014.69 1014.60 1014.50 1014.17 1014.00 1013.86 1013.70 1013.49 1013.13 1012.73 1012.22 1011.67
1007.89 1007.68 1006.87 1005.52 1005.36 1006.04 1007.63 1007.99 1008.03 1008.71 1009.38 1009.80 1010.66 1011.73 1012.65 1013.41 1014.00 1014.46 1014.80 1015.15 1015.41 1015.79 1016.13 1016.35 1016.35 1016.42 1016.60 1016.33 1016.35 1016.29 1015.68 1015.51 1015.47 1015.30 1015.03 1014.59 1014.34 1014.03 1013.68 1013.33 1012.86 1012.33 1011.79 1011.24
1007.23 1006.88 1006.30 1005.91 1005.75 1006.72 1007.29 1007.99 1009.00 1009.11 1010.26 1010.65 1011.87 1012.94 1013.66 1014.32 1014.80 1015.22 1015.59 1015.90 1016.16 1016.43 1016.85 1016.96 1016.94 1016.87 1017.14 1017.26 1016.80 1016.40 1016.38 1016.37 1016.25 1015.81 1015.31 1014.82 1014.50 1014.14 1013.72 1013.20 1012.59 1011.99 1011.42 1010.78
1007.06 1007.19 1007.08 1006.87 1007.17 1007.46 1007.91 1008.63 1009.60 1010.08 1010.70 1011.43 1012.60 1013.63 1014.61 1015.25 1015.76 1016.07 1016.48 1016.84 1017.16 1017.34 1017.46 1017.52 1017.32 1017.21 1017.19 1017.07 1016.92 1016.99 1016.98 1016.78 1016.31 1015.82 1015.30 1014.61 1014.18 1013.85 1013.39 1012.88 1012.35 1011.88 1011.38 1010.68
1007.24 1007.67 1007.84 1008.00 1007.62 1007.83 1008.62 1009.20 1009.96 1010.71 1011.32 1012.16 1012.96 1014.34 1015.10 1015.96 1016.49 1016.76 1016.93 1017.12 1017.20 1017.38 1017.50 1017.56 1017.36 1017.25 1017.24 1017.07 1016.97 1017.06 1016.97 1016.60 1016.09 1015.58 1015.00 1014.42 1013.83 1013.26 1012.75 1012.22 1011.92 1011.52 1011.02 1010.46
1006.70 1006.56 1006.64 1007.88 1008.13 1008.07 1008.66 1009.66 1010.38 1011.01 1012.12 1012.84 1013.32 1014.58 1015.31 1016.24 1016.73 1017.07 1017.39 1017.63 1017.72 1017.72 1017.69 1017.68 1017.51 1017.29 1016.96 1016.91 1016.90 1016.80 1016.63 1016.33 1015.92 1015.43 1014.84 1014.09 1013.37 1012.47 1011.96 1011.32 1010.75 1010.45 1010.17 1009.85
1005.00 1005.50 1006.30 1007.49 1008.21 1008.32 1008.97 1009.81 1010.46 1011.14 1012.03 1012.98 1014.02 1014.63 1015.53 1016.47 1016.92 1017.14 1017.35 1017.50 1017.56 1017.57 1017.50 1017.39 1017.25 1017.09 1016.79 1016.49 1016.39 1016.42 1016.34 1016.05 1015.65 1015.11 1014.54 1013.84 1013.12 1012.38 1011.41 1010.49 1010.02 1009.53 1009.10 1008.70
1004.97 1005.66 1007.63 1007.99 1008.49 1008.82 1009.21 1010.12 1010.80 1011.63 1012.42 1013.27 1014.16 1014.91 1015.61 1016.25 1016.69 1016.85 1017.02 1017.06 1017.01 1017.02 1017.05 1017.03 1016.88 1016.64 1016.24 1016.19 1016.21 1016.15 1016.03 1015.75 1015.40 1014.87 1014.15 1013.45 1012.84 1012.14 1011.37 1010.34 1009.19 1008.56 1008.25 1007.85
1005.66 1005.71 1006.87 1008.13 1008.80 1009.37 1009.83 1010.53 1011.42 1012.39 1013.28 1014.08 1014.51 1015.04 1015.60 1016.19 1016.47 1016.59 1016.55 1016.57 1016.64 1016.73 1016.72 1016.67 1016.59 1016.20 1015.77 1015.69 1015.79 1015.87 1015.76 1015.45 1015.06 1014.52 1013.89 1013.35 1012.75 1011.95 1011.15 1010.28 1009.40 1008.48 1007.85 1007.36
1006.60 1007.02 1007.79 1008.44 1009.24 1009.81 1010.41 1011.21 1011.99 1013.00 1013.66 1014.33 1014.78 1015.23 1015.65 1015.99 1016.28 1016.38 1016.34 1016.37 1016.56 1016.54 1016.39 1016.38 1016.17 1015.61 1015.32 1015.35 1015.47 1015.45 1015.34 1014.89 1014.51 1014.17 1013.64 1012.94 1012.21 1011.44 1010.74 1010.09 1009.29 1008.27 1007.64 1006.69
1007.02 1008.15 1008.49 1009.09 1009.58 1010.16 1010.72 1011.41 1012.07 1013.03 1013.87 1014.35 1014.82 1015.23 1015.57 1015.89 1016.23 1016.30 1016.24 1016.17 1016.19 1016.12 1015.93 1015.88 1015.51 1015.08 1015.07 1015.05 1015.00 1014.99 1014.93 1014.70 1014.30 1013.73 1012.94 1012.28 1011.69 1011.09 1010.53 1009.92 1009.26 1008.27 1007.45 1006.63
1005.78 1006.84 1007.53 1008.25 1009.35 1010.23 1011.06 1011.61 1012.20 1012.95 1013.66 1014.15 1014.68 1015.14 1015.50 1015.91 1016.17 1016.14 1016.03 1015.87 1015.91 1015.67 1015.37 1015.14 1014.83 1014.73 1014.48 1014.40 1014.50 1014.60 1014.68 1014.38 1013.85 1013.16 1012.48 1011.81 1011.19 1010.59 1009.98 1009.40 1008.76 1007.95 1006.96 1006.16
1006.16 1007.12 1008.11 1008.90 1009.63 1010.45 1011.16 1011.84 1012.40 1012.96 1013.66 1014.17 1014.65 1015.06 1015.38 1015.67 1015.80 1015.69 1015.61 1015.89 1015.99 1015.68 1015.03 1014.53 1014.24 1014.08 1014.11 1014.11 1014.04 1014.20 1014.14 1013.85 1013.37 1012.66 1012.10 1011.36 1010.60 1009.97 1009.28 1008.68 1008.03 1007.33 1006.52 1005.69
1007.26 1007.91 1008.71 1009.65 1010.29 1010.89 1011.68 1012.21 1012.73 1013.31 1013.81 1014.20 1014.68 1015.04 1015.35 1015.48 1015.45 1015.62 1015.66 1015.77 1015.29 1014.66 1014.22 1014.02 1013.99 1013.84 1013.79 1013.66 1013.53 1013.61 1013.56 1013.41 1013.00 1012.41 1011.67 1010.94 1010.09 1009.20 1008.43 1007.81 1007.21 1006.55 1005.87 1005.16
1008.11 1008.83 1009.61 1010.37 1011.18 1011.65 1012.07 1012.64 1013.06 1013.62 1014.04 1014.22 1014.64 1014.97 1015.16 1015.18 1015.19 1015.32 1015.35 1015.19 1014.40 1014.03 1013.94 1013.76 1013.71 1013.47 1013.36 1013.16 1013.09 1013.15 1013.23 1013.10 1012.72 1012.18 1011.40 1010.42 1009.43 1008.58 1007.76 1007.04 1006.43 1005.82 1005.25 1004.63
1008.77 1009.51 1010.27 1010.92 1011.52 1012.13 1012.59 1012.85 1013.19 1013.62 1014.02 1014.28 1014.45 1014.72 1014.98 1015.08 1015.08 1014.96 1014.63 1014.56 1013.85 1013.50 1013.52 1013.47 1013.14 1012.91 1012.78 1012.67 1012.85 1012.97 1012.96 1012.76 1012.35 1011.88 1011.06 1010.05 1009.09 1008.13 1007.32 1006.63 1005.87 1005.21 1004.61 1003.97
1009.25 1009.93 1010.53 1011.15 1011.69 1012.15 1012.59 1012.87 1013.21 1013.56 1014.08 1014.24 1014.50 1014.69 1014.87 1014.77 1014.71 1015.01 1014.65 1013.59 1013.34 1013.08 1013.04 1012.91 1012.63 1012.50 1012.42 1012.62 1012.74 1012.69 1012.55 1012.36 1011.99 1011.50 1010.60 1009.68 1008.74 1007.83 1007.02 1006.20 1005.48 1004.77 1004.03 1003.36
1009.45 1010.24 1010.85 1011.41 1011.85 1012.39 1012.99 1013.15 1013.28 1013.44 1013.64 1013.86 1014.01 1014.11 1014.29 1014.56 1014.17 1013.88 1013.56 1013.31 1012.86 1012.71 1012.69 1012.58 1012.53 1012.31 1012.30 1012.60 1012.51 1012.39 1012.30 1012.08 1011.70 1011.02 1010.19 1009.28 1008.38 1007.57 1006.71 1005.92 1005.10 1004.36 1003.63 1002.93
1009.57 1010.31 1010.94 1011.50 1012.02 1012.35 1012.63 1012.89 1013.16 1013.53 1013.70 1013.85 1013.75 1013.67 1013.63 1013.73 1014.08 1013.21 1012.86 1012.90 1012.46 1012.30 1012.64 1012.63 1012.46 1012.42 1012.45 1012.48 1012.41 1012.34 1012.10 1011.92 1011.52 1010.87 1009.97 1009.09 1008.22 1007.46 1006.66 1005.81 1004.95 1004.08 1003.24 1002.46
1009.82 1010.36 1010.79 1011.19 1011.51 1012.02 1012.29 1012.62 1012.97 1013.08 1013.35 1013.69 1013.46 1013.21 1013.23 1013.07 1012.99 1012.83 1012.62 1012.50 1012.28 1012.49 1012.69 1012.57 1012.43 1012.46 1012.45 1012.38 1012.34 1012.19 1011.98 1011.77 1011.36 1010.73 1009.99 1009.18 1008.36 1007.58 1006.74 1005.79 1004.81 1003.84 1002.69 1002.09
1010.02 1010.43 1011.00 1011.46 1011.57 1011.64 1011.74 1012.04 1012.35 1012.58 1012.74 1013.06 1013.04 1012.81 1012.81 1012.64 1012.57 1012.52 1012.42 1012.47 1012.52 1012.61 1012.58 1012.37 1012.38 1012.36 1012.38 1012.33 1012.33 1012.16 1011.96 1011.79 1011.36 1010.83 1010.12 1009.45 1008.64 1007.91 1006.97 1006.02 1005.06 1004.01 1002.98 1002.10
Wind_Speed
5 4 3 2 2 5 5 6 6 4 6 7 10 9 9 6 3 10 7 6 14 18 13 8 8 8 8 6 6 7 9 8 6 6 6 6 5 4 3 1 3 4 5 7
4 3 6 1 4 4 1 7 3 5 4 5 7 8 5 3 1 4 3 6 11 11 2 3 6 7 8 7 7 7 7 6 6 5 4 4 4 4 4 4 4 4 5 6
3 3 4 6 4 5 2 2 10 6 5 7 3 8 12 7 4 6 6 7 4 2 3 2 3 3 5 4 4 5 5 3 4 4 5 5 3 2 3 3 2 3 5 6
3 4 3 10 7 6 3 5 9 6 9 16 12 5 8 5 5 2 2 4 6 5 1 3 3 4 4 5 7 8 9 7 6 5 4 3 2 1 2 3 4 4 6 7
6 4 5 4 7 5 7 3 2 13 8 6 10 7 3 6 5 5 5 4 4 8 11 13 12 11 12 12 10 11 10 8 8 7 7 6 6 5 4 3 4 5 6 8
3 4 2 6 9 2 7 4 3 16 13 18 16 6 3 7 5 4 5 7 8 11 12 13 10 9 11 10 10 10 9 8 7 7 7 7 6 6 3 3 5 5 8 9
3 2 4 5 9 1 8 7 3 6 10 7 6 6 7 13 13 12 10 10 11 12 11 8 6 8 10 7 7 5 7 8 8 8 7 6 6 4 4 5 6 7 9 9
3 4 4 3 4 8 7 4 11 13 13 19 17 15 14 13 11 11 11 10 9 9 8 7 7 7 6 8 6 6 7 8 9 9 8 8 7 6 7 7 7 8 9 8
6 7 5 5 8 8 12 15 8 15 12 16 15 13 12 10 10 9 8 8 6 7 7 7 7 6 7 4 5 6 7 6 6 7 7 7 6 8 8 8 8 8 8 7
6 4 5 12 7 10 14 17 12 13 14 15 14 11 11 9 7 7 6 7 5 6 6 6 5 6 4 3 4 5 5 6 6 6 7 8 5 5 6 7 7 7 8 9
1 6 8 5 11 16 15 15 15 13 13 13 14 10 10 7 7 6 6 5 5 6 5 4 3 4 2 3 4 4 5 6 6 5 6 7 8 8 10 11 8 10 10 10
7 10 7 7 8 14 16 14 13 17 12 10 14 11 9 8 6 6 6 4 5 4 4 2 2 1 1 2 2 3 4 4 5 7 8 8 9 10 11 15 17 17 17 14
7 7 10 12 11 10 14 13 12 13 13 13 7 11 8 7 5 7 6 5 4 2 1 1 3 3 3 4 3 4 4 6 6 8 9 9 10 11 13 12 14 16 16 17
13 19 11 9 8 10 15 12 14 11 10 11 10 8 8 7 5 6 4 2 2 1 1 2 4 6 6 5 5 6 5 10 5 8 9 10 10 11 11 13 11 12 11 11
8 10 13 12 9 8 12 13 12 11 11 8 7 8 7 7 6 4 3 1 1 1 2 3 4 8 6 6 5 5 4 4 7 9 10 11 11 11 11 13 12 12 13 11
13 16 14 16 12 10 14 11 12 8 9 7 7 7 7 6 6 4 2 3 2 5 5 5 7 8 7 3 1 2 3 10 11 8 9 10 10 11 12 12 13 12 12 13
16 8 11 9 11 8 9 8 9 9 9 8 8 7 6 5 3 1 4 4 5 7 6 7 8 7 4 4 3 2 3 4 12 7 9 10 10 11 11 11 12 12 12 13
17 17 16 16 13 11 9 8 10 11 9 8 8 7 4 3 5 4 4 4 5 6 5 6 8 6 5 6 4 3 3 4 6 8 9 11 11 11 10 10 11 12 12 12
13 13 12 12 11 10 8 8 8 8 8 7 7 6 4 6 5 4 3 3 5 4 7 7 9 7 6 7 6 3 4 5 6 8 10 15 11 10 10 10 11 11 12 11
15 13 15 12 10 11 9 7 9 8 7 7 7 6 4 3 3 4 4 5 7 6 6 8 6 6 6 8 9 4 5 5 6 9 10 12 11 12 11 12 11 11 11 10
15 14 14 12 10 9 9 8 8 7 6 7 7 5 4 4 4 4 4 4 7 7 8 10 6 5 5 6 6 4 5 5 6 9 11 12 13 12 11 11 10 10 10 10
12 12 12 11 10 8 8 7 7 7 6 5 5 4 2 5 5 6 5 7 5 8 5 5 5 8 7 11 3 5 5 6 6 8 10 11 11 12 12 11 11 10 10 10
10 10 10 9 9 8 7 7 7 7 6 6 5 4 5 5 4 2 6 7 5 7 5 5 6 11 11 4 4 5 6 6 6 7 11 11 11 11 11 11 11 11 10 10
9 9 8 7 8 6 7 6 7 7 7 6 7 7 5 4 5 4 5 8 8 8 4 4 6 11 7 3 4 5 5 5 5 9 10 14 10 11 11 11 11 10 10 11
11 8 8 8 7 6 6 5 5 4 5 6 7 6 8 4 5 7 4 5 8 5 2 5 8 7 2 2 3 4 5 4 6 8 10 10 11 11 11 11 11 12 11 10
9 7 6 8 7 5 5 4 4 5 5 5 5 5 5 4 5 5 4 5 2 3 2 3 3 2 1 3 4 4 4 4 6 8 10 10 11 11 11 12 12 11 10 10
6 6 4 2 2 4 4 5 5 5 5 5 4 3 3 1 3 3 5 5 2 2 2 3 3 1 1 3 3 4 3 4 6 8 9 9 10 10 11 11 11 11 10 10
Wind_Direction
113 125 123 230 296 285 116 193 167 225 200 203 209 158 167 176 300 80 80 135 186 226 222 173 144 104 97 107 87 80 81 96 116 139 143 147 141 141 148 203 279 287 304 311
29 32 25 4 283 274 253 104 60 157 234 194 91 92 150 181 94 119 118 151 203 217 208 84 107 127 125 123 127 117 121 140 156 160 166 175 185 191 191 229 254 267 289 294
242 16 8 9 242 212 187 198 153 170 203 135 116 159 168 139 129 144 187 181 163 172 165 51 34 65 96 112 101 113 143 174 205 204 215 233 244 245 255 248 218 262 278 282
132 33 92 240 284 127 114 76 113 103 146 169 168 114 113 135 158 132 324 22 333 294 47 76 91 58 85 58 36 33 24 1 347 338 312 311 280 244 254 241 258 267 273 269
123 171 273 349 332 143 132 22 127 114 116 166 133 88 50 181 197 164 193 225 292 43 56 51 39 46 61 46 39 34 22 12 10 12 7 358 345 322 303 290 292 282 272 272
111 138 135 243 299 27 118 21 29 129 138 129 136 110 221 177 172 158 98 78 87 70 64 55 40 56 61 50 41 26 9 1 359 8 5 351 343 329 301 284 270 273 277 272
90 137 274 270 285 271 85 223 18 140 130 126 105 99 107 91 80 84 87 82 78 68 66 62 50 64 64 54 37 3 359 0 358 350 335 323 326 310 302 298 287 279 277 273
81 97 261 242 349 108 185 51 103 82 98 93 91 92 94 93 88 83 81 74 72 78 69 50 47 63 55 39 9 4 6 6 352 342 335 332 326 317 319 309 298 292 290 280
156 207 234 324 121 117 133 116 100 104 101 103 100 94 97 90 85 81 78 74 69 78 70 42 38 52 58 18 21 10 5 341 324 319 319 317 317 318 312 309 304 300 294 288
70 309 116 113 92 109 114 111 112 105 108 104 107 103 98 97 90 84 80 87 98 95 84 54 41 54 69 32 20 2 332 314 297 308 318 318 305 294 287 290 291 298 301 298
67 75 77 39 120 125 113 111 105 102 111 115 109 103 114 109 102 100 90 73 69 76 68 47 56 59 30 0 349 348 346 318 315 304 294 303 302 303 304 300 291 295 296 295
207 198 141 174 150 126 117 120 119 115 100 99 115 119 114 103 110 113 104 106 84 79 79 63 62 50 16 8 14 338 324 307 298 313 309 301 300 302 279 258 259 259 258 257
183 159 135 138 128 119 119 125 118 111 114 110 98 114 110 123 127 112 101 99 98 90 37 52 352 341 309 303 323 320 302 296 301 308 309 306 308 305 303 297 257 264 270 269
117 110 92 138 142 124 120 117 112 111 107 114 117 104 120 119 114 107 118 146 167 40 23 345 319 293 282 285 293 297 308 298 294 315 316 310 306 301 299 298 307 306 280 267
117 110 120 122 109 102 115 117 110 112 116 104 104 114 116 122 129 145 149 123 143 360 296 307 301 281 282 280 280 317 320 313 331 325 319 312 308 304 305 303 297 295 300 279
116 119 123 123 128 117 119 117 120 121 119 119 116 113 127 127 143 157 168 216 243 286 269 269 272 268 283 297 321 318 317 333 333 322 322 312 306 310 308 307 304 296 300 291
120 116 125 119 128 129 131 136 129 132 132 128 131 127 125 117 124 236 277 267 251 277 268 248 256 274 274 165 196 253 269 290 316 308 321 317 308 302 301 301 299 296 294 294
155 152 154 147 143 135 127 124 126 132 139 142 132 135 137 125 175 232 270 299 332 315 242 248 258 271 230 203 218 238 253 280 293 320 315 313 303 297 295 293 294 294 293 296
136 131 129 126 128 123 122 121 122 124 131 134 135 159 157 160 197 236 271 313 306 265 268 257 279 303 217 237 249 220 251 273 295 317 315 312 306 299 297 293 291 292 292 292
101 101 105 105 100 111 112 109 114 110 126 123 113 116 134 193 244 280 292 276 244 226 253 260 283 264 221 248 270 227 252 278 292 306 313 313 307 304 302 296 293 292 293 290
114 114 114 115 113 102 98 110 106 108 127 128 132 156 182 248 284 300 292 276 267 244 247 267 285 240 246 268 265 251 256 280 288 304 310 313 312 310 309 305 301 298 296 295
123 120 119 119 119 119 125 128 126 135 139 142 145 166 203 284 300 304 257 214 258 243 243 268 277 245 250 275 270 266 261 273 283 295 306 313 313 313 311 310 308 304 295 288
128 132 131 129 140 153 148 151 157 155 162 177 186 204 219 236 238 251 292 266 239 250 254 279 259 255 274 312 296 279 265 278 284 299 311 312 312 310 310 309 308 305 302 299
132 136 140 140 139 130 148 188 180 184 183 198 205 215 218 254 290 230 242 276 268 253 254 279 275 280 300 320 297 278 286 291 296 312 313 313 311 314 314 313 310 307 304 301
141 141 136 141 157 180 177 183 167 172 195 221 238 239 239 213 201 269 273 288 297 257 11 319 296 329 23 300 312 312 304 317 311 320 320 318 322 322 319 317 314 314 311 309
141 153 157 164 175 174 188 168 189 197 184 223 254 255 264 263 254 251 270 287 275 124 150 279 319 32 48 342 347 336 346 340 331 331 325 329 328 327 324 323 322 321 319 317
122 126 135 147 191 189 207 206 174 190 180 186 202 223 213 331 338 314 325 349 58 148 242 283 13 139 39 10 1 356 355 330 325 334 335 336 334 334 332 330 329 330 331 330